Flag for Ecuador Weather past 2 weeks in Guayaquil, Ecuador

Now
75 °F

Partly sunny.


Feels Like: 76 °F
Forecast: 74 / 89 °F
Wind: 7 mph from West

Location: Guayaquil / Simon Bolivar

Current Time: Jul 29, 2015 at 9:11:33 AM

Latest Report: Jul 29, 2015 at 8:00 AM


Visibility: N/A

Pressure: 29.86 "Hg

Humidity: 78%

Dew point: 68 °F

Location of GuayaquilLocation

Historic Weather in Guayaquil — Graph

°F

Guayaquil temperature yesterday

Maximum temperature yesterday: 82 °F (at 1:00 PM)
Minimum temperature yesterday: 73 °F (at 1:00 AM)
Average temperature yesterday: 77 °F

Past Weeks' High & Low Weather Summary

 TemperatureHumidityPressure
High91 °F (Jul 16, 2:00 PM)94% (Jul 16, 7:00 AM)29.95 "Hg (Jul 16, 7:00 AM)
Low72 °F (Jul 29, 3:00 AM)52% (Jul 16, 12:00 PM)29.68 "Hg (Jul 25, 4:00 PM)
Average79 °F74%29.84 "Hg
* Reported Jul 14 8:00 AM — Jul 29 8:00 AM, Guayaquil, Weather by CustomWeather, © 2015

Note: Actual official high and low records may vary slightly from our data, if they occured in-between our weather recording intervals... More about our weather records

Advertising

Guayaquil weather history for previous 24 hours

 ConditionsComfort  
Time TempWeatherWind HumidityBarometerVisibility
8:00 AM
Wed, Jul 29
75 °FPartly sunny.7 mph78%29.86 "HgN/A
7:00 AM73 °FBroken clouds.9 mph83%29.83 "HgN/A
6:00 AM73 °FPartly cloudy.6 mph83%29.83 "HgN/A
5:00 AM73 °FPartly cloudy.6 mph83%29.83 "HgN/A
4:00 AM72 °FPassing clouds.5 mph88%29.80 "HgN/A
3:00 AM72 °FPassing clouds.3 mph88%29.83 "HgN/A
2:00 AM73 °FPassing clouds.5 mph83%29.83 "HgN/A
1:00 AM73 °FPassing clouds.5 mph83%29.86 "HgN/A
12:00 AM73 °FPassing clouds.14 mph83%29.86 "HgN/A
11:00 PM
Tue, Jul 28
73 °FPassing clouds.16 mph83%29.86 "HgN/A
10:00 PM75 °FPassing clouds.13 mph78%29.86 "HgN/A
9:00 PM75 °FPartly cloudy.12 mph78%29.83 "HgN/A
8:00 PM77 °FPartly cloudy.10 mph74%29.83 "HgN/A
7:00 PM79 °FPartly cloudy.12 mph70%29.80 "HgN/A
6:00 PM79 °FPartly sunny.13 mph70%29.77 "HgN/A
5:00 PM81 °FPartly sunny.13 mph70%29.77 "HgN/A
4:00 PM82 °FBroken clouds.10 mph66%29.77 "HgN/A
3:00 PM82 °FBroken clouds.10 mph66%29.77 "HgN/A
2:00 PM81 °FPartly sunny.8 mph66%29.80 "HgN/A
1:00 PM82 °FPartly sunny.8 mph66%29.83 "HgN/A
12:00 PM81 °FBroken clouds.9 mph66%29.86 "HgN/A
11:00 AM81 °FBroken clouds.8 mph70%29.86 "HgN/A
10:00 AM81 °FBroken clouds.10 mph66%29.86 "HgN/A
9:00 AM77 °FBroken clouds.13 mph74%29.86 "HgN/A
Weather by CustomWeather, © 2015

See weather overviewHow to use our weather pages